,,PressureMeas_1m,,PRMeasQMR101_1,,RHStat155_1m_1,,SRMeasQMS101R_1m,,TAStat155_1m_1,,GenWind_1,,GenWind_1,
2017-04-16, 00:00:07,VALID,917.715,VALID,0.0,VALID,97.221,VALID,-0.005,VALID,19.018,VALID,146.0,VALID,2.215,
2017-04-16, 00:01:07,VALID,917.707,VALID,0.0,VALID,97.202,VALID,0.003,VALID,19.049,VALID,148.0,VALID,2.283,
2017-04-16, 00:02:07,VALID,917.714,VALID,0.0,VALID,97.104,VALID,-0.011,VALID,19.064,VALID,137.0,VALID,1.835,
2017-04-16, 00:03:07,VALID,917.702,VALID,0.0,VALID,97.126,VALID,0.006,VALID,19.046,VALID,142.0,VALID,1.843,
2017-04-16, 00:04:07,VALID,917.692,VALID,0.0,VALID,97.168,VALID,-0.011,VALID,19.029,VALID,146.0,VALID,1.348,
2017-04-16, 00:05:07,VALID,917.672,VALID,0.0,VALID,97.22,VALID,-0.013,VALID,19.02,VALID,148.0,VALID,2.081,
2017-04-16, 00:06:07,VALID,917.65,VALID,0.0,VALID,97.23,VALID,-0.011,VALID,19.028,VALID,156.0,VALID,2.088,
2017-04-16, 00:07:07,VALID,917.64,VALID,0.0,VALID,97.199,VALID,-0.015,VALID,19.044,VALID,161.0,VALID,2.142,
2017-04-16, 00:08:07,VALID,917.621,VALID,0.0,VALID,97.134,VALID,-0.012,VALID,19.059,VALID,166.0,VALID,1.887,
2017-04-16, 00:09:07,VALID,917.616,VALID,0.0,VALID,97.174,VALID,-0.014,VALID,19.054,VALID,166.0,VALID,1.239,
2017-04-16, 00:10:07,VALID,917.606,VALID,0.0,VALID,97.182,VALID,-0.021,VALID,19.046,VALID,154.0,VALID,2.37,
2017-04-16, 00:11:07,VALID,917.61,VALID,0.0,VALID,97.14,VALID,-0.014,VALID,19.056,VALID,167.0,VALID,1.765,
2017-04-16, 00:12:07,VALID,917.612,VALID,0.0,VALID,97.117,VALID,-0.006,VALID,19.052,VALID,150.0,VALID,1.597,
2017-04-16, 00:13:07,VALID,917.604,VALID,0.0,VALID,97.165,VALID,-0.013,VALID,19.036,VALID,163.0,VALID,1.418,
2017-04-16, 00:14:07,VALID,917.598,VALID,0.0,VALID,97.209,VALID,-0.021,VALID,19.028,VALID,153.0,VALID,2.311,
2017-04-16, 00:15:07,VALID,917.585,VALID,0.0,VALID,97.089,VALID,-0.016,VALID,19.066,VALID,156.0,VALID,1.86,
2017-04-16, 00:16:07,VALID,917.578,VALID,0.0,VALID,96.988,VALID,-0.023,VALID,19.09,VALID,155.0,VALID,1.652,
2017-04-16, 00:17:07,VALID,917.56,VALID,0.0,VALID,96.924,VALID,-0.022,VALID,19.09,VALID,149.0,VALID,1.668,
2017-04-16, 00:18:07,VALID,917.536,VALID,0.0,VALID,96.793,VALID,-0.026,VALID,19.105,VALID,148.0,VALID,2.661,
2017-04-16, 00:19:07,VALID,917.52,VALID,0.0,VALID,96.68,VALID,-0.02,VALID,19.124,VALID,143.0,VALID,2.003,
2017-04-16, 00:20:07,VALID,917.488,VALID,0.0,VALID,96.654,VALID,-0.036,VALID,19.11,VALID,151.0,VALID,2.178,
2017-04-16, 00:21:07,VALID,917.461,VALID,0.0,VALID,96.633,VALID,0.006,VALID,19.124,VALID,153.0,VALID,2.227,
2017-04-16, 00:22:07,VALID,917.433,VALID,0.0,VALID,96.588,VALID,0.009,VALID,19.117,VALID,162.0,VALID,1.755,
2017-04-16, 00:23:07,VALID,917.411,VALID,0.0,VALID,96.636,VALID,0.006,VALID,19.108,VALID,153.0,VALID,2.446,
2017-04-16, 00:24:07,VALID,917.394,VALID,0.0,VALID,96.587,VALID,0.002,VALID,19.115,VALID,150.0,VALID,2.271,
2017-04-16, 00:25:07,VALID,917.395,VALID,0.0,VALID,96.595,VALID,0.007,VALID,19.115,VALID,145.0,VALID,1.815,
2017-04-16, 00:26:07,VALID,917.404,VALID,0.0,VALID,96.58,VALID,0.004,VALID,19.093,VALID,136.0,VALID,1.945,
2017-04-16, 00:27:07,VALID,917.391,VALID,0.0,VALID,96.588,VALID,0.02,VALID,19.076,VALID,147.0,VALID,1.943,
2017-04-16, 00:28:07,VALID,917.376,VALID,0.0,VALID,96.597,VALID,0.012,VALID,19.082,VALID,148.0,VALID,2.024,
2017-04-16, 00:29:07,VALID,917.37,VALID,0.0,VALID,96.594,VALID,0.017,VALID,19.079,VALID,142.0,VALID,1.958,
2017-04-16, 00:30:07,VALID,917.349,VALID,0.0,VALID,96.512,VALID,0.009,VALID,19.079,VALID,143.0,VALID,1.807,
2017-04-16, 00:31:07,VALID,917.334,VALID,0.0,VALID,96.385,VALID,0.027,VALID,19.108,VALID,147.0,VALID,2.121,
2017-04-16, 00:32:07,VALID,917.326,VALID,0.0,VALID,96.274,VALID,0.02,VALID,19.13,VALID,141.0,VALID,2.274,
2017-04-16, 00:33:07,VALID,917.326,VALID,0.0,VALID,96.258,VALID,0.007,VALID,19.141,VALID,152.0,VALID,1.963,
2017-04-16, 00:34:07,VALID,917.309,VALID,0.0,VALID,96.29,VALID,0.016,VALID,19.131,VALID,152.0,VALID,2.675,
2017-04-16, 00:35:07,VALID,917.293,VALID,0.0,VALID,96.32,VALID,0.01,VALID,19.132,VALID,151.0,VALID,2.297,
2017-04-16, 00:36:07,VALID,917.295,VALID,0.0,VALID,96.36,VALID,0.01,VALID,19.115,VALID,154.0,VALID,2.5,
2017-04-16, 00:37:07,VALID,917.278,VALID,0.0,VALID,96.449,VALID,0.004,VALID,19.104,VALID,160.0,VALID,2.046,
2017-04-16, 00:38:07,VALID,917.266,VALID,0.0,VALID,96.6,VALID,0.002,VALID,19.092,VALID,162.0,VALID,2.009,
2017-04-16, 00:39:07,VALID,917.26,VALID,0.0,VALID,96.665,VALID,0.002,VALID,19.081,VALID,154.0,VALID,2.366,
2017-04-16, 00:40:07,VALID,917.227,VALID,0.0,VALID,96.533,VALID,-0.003,VALID,19.096,VALID,150.0,VALID,2.88,
2017-04-16, 00:41:07,VALID,917.216,VALID,0.0,VALID,96.325,VALID,0.016,VALID,19.133,VALID,151.0,VALID,2.351,
2017-04-16, 00:42:07,VALID,917.2,VALID,0.0,VALID,96.244,VALID,0.015,VALID,19.138,VALID,153.0,VALID,2.97,
2017-04-16, 00:43:07,VALID,917.164,VALID,0.0,VALID,96.188,VALID,-0.008,VALID,19.145,VALID,156.0,VALID,2.084,
2017-04-16, 00:44:07,VALID,917.144,VALID,0.0,VALID,96.146,VALID,0.012,VALID,19.142,VALID,148.0,VALID,2.129,
2017-04-16, 00:45:07,VALID,917.123,VALID,0.0,VALID,96.075,VALID,-0.007,VALID,19.145,VALID,152.0,VALID,2.3,
2017-04-16, 00:46:07,VALID,917.083,VALID,0.0,VALID,95.889,VALID,0.006,VALID,19.171,VALID,142.0,VALID,2.279,
2017-04-16, 00:47:07,VALID,917.07,VALID,0.0,VALID,95.793,VALID,0.009,VALID,19.188,VALID,163.0,VALID,2.05,
2017-04-16, 00:48:07,VALID,917.049,VALID,0.0,VALID,95.686,VALID,0.0,VALID,19.193,VALID,152.0,VALID,2.478,
2017-04-16, 00:49:07,VALID,917.034,VALID,0.0,VALID,95.75,VALID,0.009,VALID,19.18,VALID,165.0,VALID,1.87,
2017-04-16, 00:50:07,VALID,917.019,VALID,0.0,VALID,95.934,VALID,0.01,VALID,19.155,VALID,158.0,VALID,1.651,
2017-04-16, 00:51:07,VALID,916.992,VALID,0.0,VALID,95.866,VALID,0.015,VALID,19.139,VALID,146.0,VALID,2.359,
2017-04-16, 00:52:07,VALID,916.953,VALID,0.0,VALID,95.798,VALID,0.018,VALID,19.165,VALID,155.0,VALID,2.128,
2017-04-16, 00:53:07,VALID,916.939,VALID,0.0,VALID,95.653,VALID,0.013,VALID,19.191,VALID,153.0,VALID,2.111,
2017-04-16, 00:54:07,VALID,916.917,VALID,0.0,VALID,95.475,VALID,0.012,VALID,19.217,VALID,155.0,VALID,2.171,
2017-04-16, 00:55:07,VALID,916.904,VALID,0.0,VALID,95.336,VALID,0.026,VALID,19.23,VALID,148.0,VALID,2.563,
2017-04-16, 00:56:07,VALID,916.89,VALID,0.0,VALID,95.173,VALID,0.025,VALID,19.254,VALID,152.0,VALID,2.339,
2017-04-16, 00:57:07,VALID,916.866,VALID,0.0,VALID,95.048,VALID,0.021,VALID,19.277,VALID,154.0,VALID,2.062,
2017-04-16, 00:58:07,VALID,916.853,VALID,0.0,VALID,94.889,VALID,0.018,VALID,19.302,VALID,161.0,VALID,2.147,
2017-04-16, 00:59:07,VALID,916.837,VALID,0.0,VALID,94.97,VALID,0.018,VALID,19.282,VALID,163.0,VALID,1.447,
2017-04-16, 01:00:07,VALID,916.833,VALID,0.0,VALID,95.329,VALID,0.018,VALID,19.225,VALID,164.0,VALID,1.309,
2017-04-16, 01:01:07,VALID,916.826,VALID,0.0,VALID,95.138,VALID,0.026,VALID,19.219,VALID,160.0,VALID,1.596,
2017-04-16, 01:02:07,VALID,916.84,VALID,0.0,VALID,95.423,VALID,0.037,VALID,19.202,VALID,187.0,VALID,0.696,
2017-04-16, 01:03:07,VALID,916.836,VALID,0.0,VALID,95.687,VALID,0.031,VALID,19.151,VALID,177.0,VALID,0.531,
2017-04-16, 01:04:07,VALID,916.824,VALID,0.0,VALID,95.771,VALID,0.034,VALID,19.113,VALID,180.0,VALID,0.416,
2017-04-16, 01:05:07,VALID,916.823,VALID,0.0,VALID,95.9,VALID,0.034,VALID,19.097,VALID,176.0,VALID,0.869,
2017-04-16, 01:06:07,VALID,916.809,VALID,0.0,VALID,95.933,VALID,0.01,VALID,19.099,VALID,148.0,VALID,0.543,
2017-04-16, 01:07:07,VALID,916.786,VALID,0.0,VALID,96.0,VALID,0.033,VALID,19.088,VALID,147.0,VALID,0.441,
2017-04-16, 01:08:07,VALID,916.775,VALID,0.0,VALID,96.025,VALID,0.034,VALID,19.084,VALID,135.0,VALID,0.917,
2017-04-16, 01:09:07,VALID,916.761,VALID,0.0,VALID,95.969,VALID,0.009,VALID,19.106,VALID,125.0,VALID,0.903,
2017-04-16, 01:10:07,VALID,916.749,VALID,0.0,VALID,96.012,VALID,0.009,VALID,19.104,VALID,125.0,VALID,0.533,
2017-04-16, 01:11:07,VALID,916.729,VALID,0.0,VALID,96.109,VALID,0.017,VALID,19.088,VALID,138.0,VALID,0.545,
2017-04-16, 01:12:07,VALID,916.714,VALID,0.0,VALID,96.305,VALID,0.013,VALID,19.066,VALID,154.0,VALID,0.36,
2017-04-16, 01:13:07,VALID,916.7,VALID,0.0,VALID,96.302,VALID,0.025,VALID,19.053,VALID,108.0,VALID,0.892,
2017-04-16, 01:14:07,VALID,916.683,VALID,0.0,VALID,96.366,VALID,0.003,VALID,19.044,VALID,69.0,VALID,0.823,
2017-04-16, 01:15:07,VALID,916.672,VALID,0.0,VALID,96.473,VALID,0.015,VALID,19.016,VALID,87.0,VALID,0.72,
2017-04-16, 01:16:07,VALID,916.661,VALID,0.0,VALID,96.583,VALID,0.011,VALID,18.979,VALID,117.0,VALID,0.639,
2017-04-16, 01:17:06,VALID,916.641,VALID,0.0,VALID,96.595,VALID,0.001,VALID,18.972,VALID,133.0,VALID,1.513,
2017-04-16, 01:18:06,VALID,916.625,VALID,0.0,VALID,96.4,VALID,-0.008,VALID,19.015,VALID,138.0,VALID,1.765,
2017-04-16, 01:19:06,VALID,916.622,VALID,0.0,VALID,96.187,VALID,0.004,VALID,19.059,VALID,131.0,VALID,1.479,
2017-04-16, 01:20:06,VALID,916.598,VALID,0.0,VALID,96.042,VALID,0.001,VALID,19.076,VALID,138.0,VALID,1.624,
2017-04-16, 01:21:06,VALID,916.583,VALID,0.0,VALID,95.923,VALID,0.006,VALID,19.09,VALID,144.0,VALID,1.937,
2017-04-16, 01:22:06,VALID,916.568,VALID,0.0,VALID,95.612,VALID,-0.003,VALID,19.138,VALID,147.0,VALID,2.512,
2017-04-16, 01:23:06,VALID,916.573,VALID,0.0,VALID,95.384,VALID,-0.004,VALID,19.189,VALID,144.0,VALID,1.764,
2017-04-16, 01:24:06,VALID,916.557,VALID,0.0,VALID,95.438,VALID,0.004,VALID,19.175,VALID,147.0,VALID,1.831,
2017-04-16, 01:25:06,VALID,916.537,VALID,0.0,VALID,95.462,VALID,0.002,VALID,19.166,VALID,161.0,VALID,1.65,
2017-04-16, 01:26:06,VALID,916.534,VALID,0.0,VALID,95.419,VALID,0.001,VALID,19.174,VALID,154.0,VALID,2.211,
2017-04-16, 01:27:06,VALID,916.518,VALID,0.0,VALID,95.593,VALID,0.007,VALID,19.153,VALID,179.0,VALID,1.099,
2017-04-16, 01:28:06,VALID,916.499,VALID,0.0,VALID,95.84,VALID,0.008,VALID,19.113,VALID,152.0,VALID,1.905,
2017-04-16, 01:29:06,VALID,916.501,VALID,0.0,VALID,96.077,VALID,-0.003,VALID,19.089,VALID,186.0,VALID,0.606,
2017-04-16, 01:30:06,VALID,916.488,VALID,0.0,VALID,96.306,VALID,0.005,VALID,19.06,VALID,159.0,VALID,1.72,
2017-04-16, 01:31:06,VALID,916.484,VALID,0.0,VALID,96.346,VALID,0.015,VALID,19.048,VALID,148.0,VALID,2.509,
2017-04-16, 01:32:06,VALID,916.475,VALID,0.0,VALID,96.326,VALID,0.037,VALID,19.056,VALID,164.0,VALID,1.929,
2017-04-16, 01:33:06,VALID,916.47,VALID,0.0,VALID,96.308,VALID,0.011,VALID,19.052,VALID,145.0,VALID,1.923,
2017-04-16, 01:34:06,VALID,916.46,VALID,0.0,VALID,96.169,VALID,0.034,VALID,19.044,VALID,142.0,VALID,2.057,
2017-04-16, 01:35:06,VALID,916.441,VALID,0.0,VALID,96.013,VALID,0.024,VALID,19.08,VALID,149.0,VALID,2.707,
2017-04-16, 01:36:06,VALID,916.433,VALID,0.0,VALID,95.956,VALID,-0.011,VALID,19.121,VALID,152.0,VALID,3.071,
2017-04-16, 01:37:06,VALID,916.412,VALID,0.0,VALID,96.025,VALID,-0.024,VALID,19.13,VALID,157.0,VALID,3.125,
2017-04-16, 01:38:06,VALID,916.404,VALID,0.0,VALID,96.096,VALID,-0.005,VALID,19.119,VALID,156.0,VALID,3.154,
2017-04-16, 01:39:06,VALID,916.384,VALID,0.0,VALID,96.125,VALID,-0.0,VALID,19.113,VALID,154.0,VALID,3.204,
2017-04-16, 01:40:06,VALID,916.367,VALID,0.0,VALID,96.126,VALID,0.005,VALID,19.105,VALID,152.0,VALID,3.57,
2017-04-16, 01:41:06,VALID,916.346,VALID,0.0,VALID,96.135,VALID,-0.011,VALID,19.107,VALID,158.0,VALID,3.615,
2017-04-16, 01:42:06,VALID,916.332,VALID,0.0,VALID,96.199,VALID,-0.003,VALID,19.104,VALID,159.0,VALID,3.316,
2017-04-16, 01:43:06,VALID,916.324,VALID,0.0,VALID,96.224,VALID,-0.018,VALID,19.105,VALID,154.0,VALID,4.164,
2017-04-16, 01:44:06,VALID,916.29,VALID,0.0,VALID,96.184,VALID,-0.008,VALID,19.111,VALID,159.0,VALID,3.72,
2017-04-16, 01:45:06,VALID,916.27,VALID,0.0,VALID,96.215,VALID,-0.017,VALID,19.111,VALID,161.0,VALID,2.638,
2017-04-16, 01:46:06,VALID,916.25,VALID,0.0,VALID,96.204,VALID,-0.01,VALID,19.095,VALID,149.0,VALID,3.961,
2017-04-16, 01:47:06,VALID,916.232,VALID,0.0,VALID,96.15,VALID,-0.002,VALID,19.096,VALID,155.0,VALID,4.241,
2017-04-16, 01:48:06,VALID,916.22,VALID,0.0,VALID,95.888,VALID,-0.011,VALID,19.146,VALID,147.0,VALID,4.373,
2017-04-16, 01:49:06,VALID,916.198,VALID,0.0,VALID,95.812,VALID,-0.025,VALID,19.154,VALID,147.0,VALID,4.179,
2017-04-16, 01:50:06,VALID,916.194,VALID,0.0,VALID,95.846,VALID,-0.003,VALID,19.121,VALID,148.0,VALID,3.847,
2017-04-16, 01:51:06,VALID,916.157,VALID,0.0,VALID,95.772,VALID,0.006,VALID,19.125,VALID,145.0,VALID,4.57,
2017-04-16, 01:52:06,VALID,916.15,VALID,0.0,VALID,94.849,VALID,0.015,VALID,19.258,VALID,135.0,VALID,3.965,
2017-04-16, 01:53:06,VALID,916.134,VALID,0.0,VALID,93.806,VALID,0.006,VALID,19.424,VALID,141.0,VALID,4.064,
2017-04-16, 01:54:06,VALID,916.126,VALID,0.0,VALID,93.221,VALID,0.008,VALID,19.492,VALID,135.0,VALID,4.123,
2017-04-16, 01:55:06,VALID,916.112,VALID,0.0,VALID,92.857,VALID,0.004,VALID,19.532,VALID,133.0,VALID,3.963,
2017-04-16, 01:56:06,VALID,916.094,VALID,0.0,VALID,93.11,VALID,-0.011,VALID,19.478,VALID,128.0,VALID,3.635,
2017-04-16, 01:57:06,VALID,916.072,VALID,0.0,VALID,93.268,VALID,0.03,VALID,19.432,VALID,131.0,VALID,3.764,
2017-04-16, 01:58:06,VALID,916.073,VALID,0.0,VALID,93.352,VALID,0.017,VALID,19.417,VALID,133.0,VALID,3.8,
2017-04-16, 01:59:06,VALID,916.049,VALID,0.0,VALID,93.366,VALID,-0.001,VALID,19.417,VALID,133.0,VALID,3.718,
2017-04-16, 02:00:06,VALID,916.053,VALID,0.0,VALID,93.078,VALID,0.014,VALID,19.443,VALID,137.0,VALID,3.827,
2017-04-16, 02:01:06,VALID,916.044,VALID,0.0,VALID,92.989,VALID,0.008,VALID,19.463,VALID,134.0,VALID,3.471,
2017-04-16, 02:02:06,VALID,916.025,VALID,0.0,VALID,93.224,VALID,0.011,VALID,19.408,VALID,136.0,VALID,3.996,
2017-04-16, 02:03:06,VALID,916.04,VALID,0.0,VALID,93.298,VALID,0.019,VALID,19.383,VALID,134.0,VALID,4.049,
2017-04-16, 02:04:06,VALID,916.035,VALID,0.0,VALID,93.378,VALID,0.021,VALID,19.366,VALID,132.0,VALID,3.623,
2017-04-16, 02:05:06,VALID,916.042,VALID,0.0,VALID,93.485,VALID,0.02,VALID,19.336,VALID,127.0,VALID,3.763,
2017-04-16, 02:06:06,VALID,916.024,VALID,0.0,VALID,93.574,VALID,-0.01,VALID,19.327,VALID,124.0,VALID,3.617,
2017-04-16, 02:07:06,VALID,916.019,VALID,0.0,VALID,93.425,VALID,-0.004,VALID,19.348,VALID,129.0,VALID,3.908,
2017-04-16, 02:08:06,VALID,916.0,VALID,0.0,VALID,93.426,VALID,-0.015,VALID,19.35,VALID,127.0,VALID,3.96,
2017-04-16, 02:09:06,VALID,915.988,VALID,0.0,VALID,93.155,VALID,-0.017,VALID,19.38,VALID,129.0,VALID,4.116,
2017-04-16, 02:10:06,VALID,915.974,VALID,0.0,VALID,92.966,VALID,-0.031,VALID,19.413,VALID,124.0,VALID,3.822,
2017-04-16, 02:11:06,VALID,915.937,VALID,0.0,VALID,92.925,VALID,-0.035,VALID,19.407,VALID,125.0,VALID,3.825,
2017-04-16, 02:12:06,VALID,915.955,VALID,0.0,VALID,92.937,VALID,-0.028,VALID,19.413,VALID,125.0,VALID,3.675,
2017-04-16, 02:13:06,VALID,915.939,VALID,0.0,VALID,93.015,VALID,-0.034,VALID,19.396,VALID,126.0,VALID,3.654,
2017-04-16, 02:14:06,VALID,915.937,VALID,0.0,VALID,92.912,VALID,-0.034,VALID,19.398,VALID,131.0,VALID,3.623,
2017-04-16, 02:15:06,VALID,915.94,VALID,0.0,VALID,92.967,VALID,-0.025,VALID,19.402,VALID,126.0,VALID,3.402,
2017-04-16, 02:16:06,VALID,915.944,VALID,0.0,VALID,93.146,VALID,-0.036,VALID,19.353,VALID,128.0,VALID,3.317,
2017-04-16, 02:17:06,VALID,915.95,VALID,0.0,VALID,93.442,VALID,-0.035,VALID,19.292,VALID,136.0,VALID,3.567,
2017-04-16, 02:18:06,VALID,915.938,VALID,0.0,VALID,93.586,VALID,-0.029,VALID,19.253,VALID,136.0,VALID,3.32,
2017-04-16, 02:19:06,VALID,915.938,VALID,0.0,VALID,93.631,VALID,-0.027,VALID,19.262,VALID,139.0,VALID,3.207,
2017-04-16, 02:20:06,VALID,915.913,VALID,0.0,VALID,93.808,VALID,-0.014,VALID,19.255,VALID,143.0,VALID,3.49,
2017-04-16, 02:21:06,VALID,915.901,VALID,0.0,VALID,93.8,VALID,-0.009,VALID,19.276,VALID,139.0,VALID,3.16,
2017-04-16, 02:22:06,VALID,915.87,VALID,0.0,VALID,93.508,VALID,-0.015,VALID,19.327,VALID,135.0,VALID,3.934,
2017-04-16, 02:23:06,VALID,915.862,VALID,0.0,VALID,92.972,VALID,-0.014,VALID,19.445,VALID,140.0,VALID,4.147,
2017-04-16, 02:24:06,VALID,915.842,VALID,0.0,VALID,92.343,VALID,-0.024,VALID,19.533,VALID,141.0,VALID,3.896,
2017-04-16, 02:25:06,VALID,915.827,VALID,0.0,VALID,91.916,VALID,-0.039,VALID,19.62,VALID,147.0,VALID,4.3,
2017-04-16, 02:26:06,VALID,915.851,VALID,0.0,VALID,92.177,VALID,-0.022,VALID,19.559,VALID,145.0,VALID,4.109,
2017-04-16, 02:27:06,VALID,915.822,VALID,0.0,VALID,92.267,VALID,-0.002,VALID,19.512,VALID,148.0,VALID,4.102,
2017-04-16, 02:28:06,VALID,915.824,VALID,0.0,VALID,92.526,VALID,-0.018,VALID,19.505,VALID,149.0,VALID,4.101,
2017-04-16, 02:29:06,VALID,915.82,VALID,0.0,VALID,92.493,VALID,-0.014,VALID,19.515,VALID,148.0,VALID,3.852,
2017-04-16, 02:30:06,VALID,915.808,VALID,0.0,VALID,92.241,VALID,-0.03,VALID,19.558,VALID,147.0,VALID,4.501,
2017-04-16, 02:31:06,VALID,915.82,VALID,0.0,VALID,91.74,VALID,-0.02,VALID,19.642,VALID,146.0,VALID,4.042,
2017-04-16, 02:32:06,VALID,915.795,VALID,0.0,VALID,91.299,VALID,-0.013,VALID,19.729,VALID,153.0,VALID,4.435,
2017-04-16, 02:33:06,VALID,915.789,VALID,0.0,VALID,91.367,VALID,-0.013,VALID,19.704,VALID,152.0,VALID,4.81,
2017-04-16, 02:34:06,VALID,915.799,VALID,0.0,VALID,90.649,VALID,-0.02,VALID,19.794,VALID,149.0,VALID,4.676,
2017-04-16, 02:35:06,VALID,915.82,VALID,0.0,VALID,91.135,VALID,-0.019,VALID,19.782,VALID,149.0,VALID,4.214,
2017-04-16, 02:36:06,VALID,915.82,VALID,0.0,VALID,91.775,VALID,0.008,VALID,19.642,VALID,149.0,VALID,3.448,
2017-04-16, 02:37:06,VALID,915.829,VALID,0.0,VALID,92.627,VALID,0.014,VALID,19.489,VALID,148.0,VALID,3.495,
2017-04-16, 02:38:06,VALID,915.826,VALID,0.0,VALID,92.24,VALID,0.003,VALID,19.532,VALID,146.0,VALID,3.865,
2017-04-16, 02:39:06,VALID,915.826,VALID,0.0,VALID,92.089,VALID,0.0,VALID,19.584,VALID,146.0,VALID,4.512,
2017-04-16, 02:40:06,VALID,915.844,VALID,0.0,VALID,91.098,VALID,-0.016,VALID,19.718,VALID,134.0,VALID,4.189,
2017-04-16, 02:41:06,VALID,915.843,VALID,0.0,VALID,90.472,VALID,-0.009,VALID,19.818,VALID,146.0,VALID,3.855,
2017-04-16, 02:42:06,VALID,915.837,VALID,0.0,VALID,90.293,VALID,0.012,VALID,19.823,VALID,140.0,VALID,4.127,
2017-04-16, 02:43:06,VALID,915.867,VALID,0.0,VALID,90.299,VALID,-0.001,VALID,19.797,VALID,136.0,VALID,3.337,
2017-04-16, 02:44:06,VALID,915.889,VALID,0.0,VALID,90.596,VALID,0.002,VALID,19.746,VALID,132.0,VALID,2.795,
2017-04-16, 02:45:06,VALID,915.89,VALID,0.0,VALID,90.967,VALID,0.005,VALID,19.69,VALID,130.0,VALID,2.794,
2017-04-16, 02:46:06,VALID,915.895,VALID,0.0,VALID,91.377,VALID,0.008,VALID,19.621,VALID,127.0,VALID,3.002,
2017-04-16, 02:47:06,VALID,915.892,VALID,0.0,VALID,91.448,VALID,0.005,VALID,19.617,VALID,136.0,VALID,2.402,
2017-04-16, 02:48:06,VALID,915.896,VALID,0.0,VALID,91.699,VALID,0.014,VALID,19.574,VALID,134.0,VALID,2.717,
2017-04-16, 02:49:06,VALID,915.886,VALID,0.0,VALID,92.036,VALID,0.004,VALID,19.515,VALID,135.0,VALID,2.858,
2017-04-16, 02:50:06,VALID,915.887,VALID,0.0,VALID,92.319,VALID,-0.01,VALID,19.469,VALID,138.0,VALID,2.49,
2017-04-16, 02:51:06,VALID,915.886,VALID,0.0,VALID,92.578,VALID,-0.012,VALID,19.437,VALID,142.0,VALID,2.48,
2017-04-16, 02:52:06,VALID,915.882,VALID,0.0,VALID,92.821,VALID,-0.018,VALID,19.417,VALID,137.0,VALID,2.446,
2017-04-16, 02:53:06,VALID,915.879,VALID,0.0,VALID,92.922,VALID,-0.022,VALID,19.401,VALID,133.0,VALID,2.934,
2017-04-16, 02:54:06,VALID,915.879,VALID,0.0,VALID,92.916,VALID,-0.023,VALID,19.405,VALID,132.0,VALID,3.052,
2017-04-16, 02:55:06,VALID,915.877,VALID,0.0,VALID,92.778,VALID,0.001,VALID,19.423,VALID,137.0,VALID,3.249,
2017-04-16, 02:56:06,VALID,915.862,VALID,0.0,VALID,92.569,VALID,0.004,VALID,19.458,VALID,136.0,VALID,2.759,
2017-04-16, 02:57:06,VALID,915.854,VALID,0.0,VALID,92.477,VALID,-0.012,VALID,19.459,VALID,138.0,VALID,3.126,
2017-04-16, 02:58:06,VALID,915.849,VALID,0.0,VALID,92.419,VALID,0.005,VALID,19.482,VALID,134.0,VALID,2.799,
2017-04-16, 02:59:06,VALID,915.849,VALID,0.0,VALID,92.436,VALID,-0.001,VALID,19.465,VALID,131.0,VALID,2.888,
2017-04-16, 03:00:06,VALID,915.851,VALID,0.0,VALID,92.516,VALID,-0.006,VALID,19.453,VALID,132.0,VALID,2.538,
2017-04-16, 03:01:06,VALID,915.842,VALID,0.0,VALID,92.373,VALID,-0.007,VALID,19.469,VALID,131.0,VALID,2.946,
2017-04-16, 03:02:06,VALID,915.838,VALID,0.0,VALID,92.2,VALID,-0.008,VALID,19.504,VALID,132.0,VALID,2.428,
2017-04-16, 03:03:06,VALID,915.849,VALID,0.0,VALID,92.038,VALID,-0.014,VALID,19.523,VALID,128.0,VALID,2.94,
2017-04-16, 03:04:06,VALID,915.847,VALID,0.0,VALID,92.008,VALID,-0.01,VALID,19.538,VALID,130.0,VALID,2.765,
2017-04-16, 03:05:06,VALID,915.84,VALID,0.0,VALID,91.965,VALID,-0.027,VALID,19.536,VALID,135.0,VALID,2.92,
2017-04-16, 03:06:06,VALID,915.847,VALID,0.0,VALID,91.965,VALID,-0.002,VALID,19.537,VALID,132.0,VALID,3.251,
2017-04-16, 03:07:06,VALID,915.856,VALID,0.0,VALID,92.079,VALID,0.006,VALID,19.518,VALID,134.0,VALID,3.264,
2017-04-16, 03:08:06,VALID,915.854,VALID,0.0,VALID,92.394,VALID,0.024,VALID,19.462,VALID,135.0,VALID,3.117,
2017-04-16, 03:09:06,VALID,915.837,VALID,0.0,VALID,92.737,VALID,0.017,VALID,19.399,VALID,134.0,VALID,2.962,
2017-04-16, 03:10:06,VALID,915.832,VALID,0.0,VALID,92.648,VALID,0.004,VALID,19.421,VALID,131.0,VALID,3.206,
2017-04-16, 03:11:06,VALID,915.822,VALID,0.0,VALID,92.408,VALID,0.01,VALID,19.476,VALID,133.0,VALID,3.111,
2017-04-16, 03:12:06,VALID,915.822,VALID,0.0,VALID,92.156,VALID,0.006,VALID,19.504,VALID,140.0,VALID,3.429,
2017-04-16, 03:13:06,VALID,915.806,VALID,0.0,VALID,92.004,VALID,0.031,VALID,19.541,VALID,147.0,VALID,3.311,
2017-04-16, 03:14:06,VALID,915.804,VALID,0.0,VALID,92.079,VALID,0.026,VALID,19.536,VALID,143.0,VALID,3.221,
2017-04-16, 03:15:06,VALID,915.802,VALID,0.0,VALID,92.223,VALID,0.013,VALID,19.52,VALID,147.0,VALID,2.876,
2017-04-16, 03:16:06,VALID,915.798,VALID,0.0,VALID,92.58,VALID,0.017,VALID,19.459,VALID,143.0,VALID,2.95,
2017-04-16, 03:17:06,VALID,915.795,VALID,0.0,VALID,92.628,VALID,0.009,VALID,19.439,VALID,139.0,VALID,2.568,
2017-04-16, 03:18:06,VALID,915.777,VALID,0.0,VALID,92.335,VALID,0.022,VALID,19.48,VALID,145.0,VALID,3.356,
2017-04-16, 03:19:06,VALID,915.78,VALID,0.0,VALID,91.834,VALID,0.024,VALID,19.558,VALID,139.0,VALID,2.793,
2017-04-16, 03:20:06,VALID,915.765,VALID,0.0,VALID,91.411,VALID,0.027,VALID,19.606,VALID,141.0,VALID,3.162,
2017-04-16, 03:21:06,VALID,915.747,VALID,0.0,VALID,90.674,VALID,-0.004,VALID,19.733,VALID,143.0,VALID,3.453,
2017-04-16, 03:22:06,VALID,915.738,VALID,0.0,VALID,90.067,VALID,-0.005,VALID,19.814,VALID,134.0,VALID,3.996,
2017-04-16, 03:23:06,VALID,915.739,VALID,0.0,VALID,89.305,VALID,-0.006,VALID,19.924,VALID,134.0,VALID,3.421,
2017-04-16, 03:24:06,VALID,915.736,VALID,0.0,VALID,88.999,VALID,0.001,VALID,19.994,VALID,137.0,VALID,3.608,
2017-04-16, 03:25:06,VALID,915.736,VALID,0.0,VALID,88.967,VALID,0.001,VALID,19.96,VALID,136.0,VALID,3.411,
2017-04-16, 03:26:06,VALID,915.739,VALID,0.0,VALID,89.295,VALID,-0.0,VALID,19.923,VALID,139.0,VALID,2.85,
2017-04-16, 03:27:06,VALID,915.743,VALID,0.0,VALID,90.084,VALID,-0.011,VALID,19.786,VALID,143.0,VALID,2.788,
2017-04-16, 03:28:06,VALID,915.746,VALID,0.0,VALID,90.582,VALID,-0.002,VALID,19.697,VALID,143.0,VALID,2.924,
2017-04-16, 03:29:06,VALID,915.741,VALID,0.0,VALID,90.807,VALID,0.004,VALID,19.668,VALID,142.0,VALID,3.066,
2017-04-16, 03:30:06,VALID,915.768,VALID,0.0,VALID,90.901,VALID,-0.004,VALID,19.661,VALID,147.0,VALID,2.795,
2017-04-16, 03:31:06,VALID,915.78,VALID,0.0,VALID,91.16,VALID,0.005,VALID,19.632,VALID,150.0,VALID,2.568,
2017-04-16, 03:32:06,VALID,915.792,VALID,0.0,VALID,91.294,VALID,0.006,VALID,19.612,VALID,147.0,VALID,2.728,
2017-04-16, 03:33:06,VALID,915.801,VALID,0.0,VALID,91.279,VALID,0.008,VALID,19.606,VALID,135.0,VALID,2.704,
2017-04-16, 03:34:06,VALID,915.828,VALID,0.0,VALID,90.833,VALID,0.016,VALID,19.666,VALID,142.0,VALID,2.745,
2017-04-16, 03:35:06,VALID,915.83,VALID,0.0,VALID,90.661,VALID,0.013,VALID,19.702,VALID,146.0,VALID,2.893,
2017-04-16, 03:36:06,VALID,915.854,VALID,0.0,VALID,90.668,VALID,-0.004,VALID,19.695,VALID,140.0,VALID,3.034,
2017-04-16, 03:37:06,VALID,915.846,VALID,0.0,VALID,91.029,VALID,-0.009,VALID,19.626,VALID,148.0,VALID,2.818,
2017-04-16, 03:38:06,VALID,915.866,VALID,0.0,VALID,91.213,VALID,-0.001,VALID,19.607,VALID,149.0,VALID,2.296,